TimeEST,TemperatureF,Dew PointF,Humidity,Sea Level PressureIn,VisibilityMPH,Wind Direction,Wind SpeedMPH,Gust SpeedMPH,PrecipitationIn,Events,Conditions,WindDirDegrees,DateUTC
12:56 AM,25.2,22.1,88,30.29,9.0,NW,3.5,-,0.00,Snow,Light Snow,310,2013-12-27 05:56:00
1:05 AM,24.8,21.2,86,30.24,10.0,West,5.8,-,0.00,Snow,Light Snow,280,2013-12-27 06:05:00
1:56 AM,23.0,15.1,72,30.30,10.0,West,5.8,-,0.00,,Partly Cloudy,280,2013-12-27 06:56:00
2:56 AM,23.0,14.0,68,30.30,10.0,West,8.1,-,N/A,,Clear,280,2013-12-27 07:56:00
3:56 AM,24.1,16.2,72,30.30,10.0,West,3.5,-,N/A,,Overcast,270,2013-12-27 08:56:00
4:18 AM,23.0,15.8,74,30.25,10.0,West,3.5,-,N/A,,Overcast,260,2013-12-27 09:18:00
4:56 AM,23.0,16.2,75,30.30,10.0,WSW,3.5,-,N/A,,Overcast,240,2013-12-27 09:56:00
5:56 AM,21.0,17.1,85,30.30,10.0,Calm,Calm,-,N/A,,Overcast,0,2013-12-27 10:56:00
6:28 AM,24.8,17.6,74,30.25,10.0,SW,3.5,-,0.00,Snow,Light Snow,220,2013-12-27 11:28:00
6:56 AM,25.2,17.1,71,30.30,10.0,SSW,8.1,-,0.00,Snow,Light Snow,210,2013-12-27 11:56:00
7:56 AM,25.2,17.1,71,30.28,10.0,South,5.8,-,0.00,Snow,Light Snow,170,2013-12-27 12:56:00
8:56 AM,25.2,17.1,71,30.28,10.0,SSW,8.1,-,0.00,Snow,Light Snow,200,2013-12-27 13:56:00
9:56 AM,26.1,18.1,72,30.29,10.0,SSW,3.5,-,0.00,Snow,Light Snow,210,2013-12-27 14:56:00
10:56 AM,27.1,19.0,72,30.30,3.0,Calm,Calm,-,N/A,Snow,Light Snow,0,2013-12-27 15:56:00
11:56 AM,28.0,21.0,75,30.29,10.0,Variable,5.8,-,0.00,Snow,Light Snow,0,2013-12-27 16:56:00
12:56 PM,28.0,21.0,75,30.26,10.0,SSW,5.8,-,0.00,,Overcast,210,2013-12-27 17:56:00
1:56 PM,30.0,22.1,72,30.26,10.0,WSW,6.9,-,N/A,,Overcast,240,2013-12-27 18:56:00
2:56 PM,31.1,22.1,69,30.25,10.0,SW,8.1,-,N/A,,Overcast,230,2013-12-27 19:56:00
3:56 PM,31.1,23.0,72,30.26,10.0,North,-9999.0,-,N/A,,Mostly Cloudy,0,2013-12-27 20:56:00
4:56 PM,32.0,24.1,73,30.27,10.0,West,6.9,-,N/A,,Overcast,260,2013-12-27 21:56:00
5:56 PM,31.1,24.1,75,30.29,10.0,West,5.8,-,N/A,,Overcast,260,2013-12-27 22:56:00
6:56 PM,31.1,23.0,72,30.28,10.0,WSW,4.6,-,N/A,,Mostly Cloudy,250,2013-12-27 23:56:00
7:56 PM,29.1,22.1,75,30.29,10.0,WSW,4.6,-,N/A,,Scattered Clouds,240,2013-12-28 00:56:00
8:56 PM,30.0,24.1,79,30.27,10.0,SSW,4.6,-,N/A,,Scattered Clouds,210,2013-12-28 01:56:00
9:56 PM,26.1,22.1,85,30.25,10.0,Calm,Calm,-,N/A,,Scattered Clouds,0,2013-12-28 02:56:00
10:56 PM,26.1,21.0,81,-9999,10.0,South,4.6,-,N/A,,Clear,190,2013-12-28 03:56:00
11:56 PM,28.0,23.0,81,-9999,10.0,South,8.1,-,N/A,,Clear,170,2013-12-28 04:56:00